Weather History for KLYV - December, 2012

Change the Weather History Date:

Saturday, December 15, 2012

  Actual Average (KFSD) Record (KFSD)
Temperature  
Mean Temperature 34 °F 19 °F  
Max Temperature 41 °F 28 °F 55 °F (1913)
Min Temperature 26 °F 10 °F -24 °F (1901)
Degree Days  
Heating Degree Days 32 46  
Month to date heating degree days 658  
Since 1 July heating degree days 2370  
Cooling Degree Days 0 0  
Month to date cooling degree days 0  
Year to date cooling degree days 690  
Moisture  
Dew Point 33 °F    
Average Humidity 91    
Maximum Humidity 100    
Minimum Humidity 70    
Precipitation  
Precipitation 0.38 in 0.02 in 0.61 in (2012)
Month to date precipitation 0.38  
Year to date precipitation 26.07  
Snow  
Snow 0.00 in 0.30 in 4.00 in (1940)
Month to date snowfall 4.2  
Since 1 July snowfall 12.9  
Snow Depth -    
Sea Level Pressure  
Sea Level Pressure 29.56 in    
Wind  
Wind Speed 6 mph (North)    
Max Wind Speed 18 mph    
Max Gust Speed 24 mph    
Visibility 4 miles    
Events Rain , Snow    
T = Trace of Precipitation, MM = Missing Value Source: NWS Daily Summary

Daily Weather History Graph

Daily Weather History Graph

Search for Another Location

Airport or City:

Trip Planner

Search our weather history database for the weather conditions in past years. The results will help you decide how hot, cold, wet, or windy it might be!

Date:

Astronomy

Dec. 15, 2012 Rise Set
Actual Time 7:51 AM CST 4:48 PM CST
Civil Twilight 7:18 AM CST 5:21 PM CST
Nautical Twilight 6:42 AM CST 5:57 PM CST
Astronomical Twilight 6:07 AM CST 6:32 PM CST
Moon 9:41 AM CST (12/15) 7:58 PM CST (12/15)
Length of Visible Light 10h 02m
Length of Day
8h 57m
Waxing Crescent, 8% of the Moon is Illuminated
Dec 15
Waxing Crescent
Dec 19
First Quarter
Dec 28
Full
Jan 4
Last Quarter
Jan 11
New

Hourly Weather History & Observations

Time (CST) Temp. Windchill Dew Point Humidity Pressure Visibility Wind Dir Wind Speed Gust Speed Precip Events Conditions
12:14 AM 41.0 °F 37.1 °F 32.0 °F 70% 29.61 in 10.0 mi SSE 5.8 mph - N/A   Overcast
12:35 AM 41.0 °F 38.0 °F 32.0 °F 70% 29.59 in 10.0 mi SE 4.6 mph - N/A   Overcast
12:55 AM 41.0 °F 36.4 °F 32.0 °F 70% 29.60 in 10.0 mi South 6.9 mph - N/A   Overcast
1:14 AM 39.2 °F 37.0 °F 32.0 °F 75% 29.60 in 10.0 mi South 3.5 mph - N/A   Overcast
1:35 AM 39.2 °F - 33.8 °F 81% 29.60 in 10.0 mi Calm Calm - N/A Rain Light Rain
1:55 AM 37.4 °F 33.8 °F 33.8 °F 87% 29.59 in 10.0 mi East 4.6 mph - N/A Rain Rain
2:14 AM 37.4 °F 34.9 °F 33.8 °F 87% 29.59 in 10.0 mi SE 3.5 mph - 0.01 in Rain Light Rain
2:35 AM 37.4 °F - 33.8 °F 87% 29.58 in 10.0 mi Calm Calm - 0.01 in Rain Rain
2:55 AM 37.4 °F - 35.6 °F 93% 29.58 in 5.0 mi Calm Calm - 0.03 in Rain Rain
3:14 AM 37.4 °F - 35.6 °F 93% 29.57 in 7.0 mi Calm Calm - 0.02 in Rain Rain
3:35 AM 37.4 °F - 35.6 °F 93% 29.56 in 7.0 mi Calm Calm - 0.05 in Rain Rain
3:55 AM 37.4 °F 33.8 °F 35.6 °F 93% 29.55 in 5.0 mi ENE 4.6 mph - 0.06 in Rain Light Rain
4:14 AM 37.4 °F - 35.6 °F 93% 29.54 in 4.0 mi Calm Calm - N/A Rain Rain
4:35 AM 37.4 °F 33.8 °F 35.6 °F 93% 29.53 in 3.0 mi East 4.6 mph - 0.03 in Rain Rain
4:55 AM 37.4 °F 31.4 °F 35.6 °F 93% 29.52 in 4.0 mi East 8.1 mph - 0.08 in Rain Rain
5:14 AM 37.4 °F 32.8 °F 35.6 °F 93% 29.51 in 5.0 mi ESE 5.8 mph - 0.01 in Rain Light Rain
5:35 AM 37.4 °F 33.8 °F 35.6 °F 93% 29.50 in 4.0 mi East 4.6 mph - 0.03 in Rain Light Rain
5:55 AM 37.4 °F 32.8 °F 35.6 °F 93% 29.50 in 3.0 mi East 5.8 mph - 0.07 in Rain Rain
6:15 AM 37.4 °F 32.8 °F 35.6 °F 93% 29.50 in 4.0 mi East 5.8 mph - 0.03 in Rain Light Rain
6:35 AM 37.4 °F 31.4 °F 35.6 °F 93% 29.50 in 4.0 mi East 8.1 mph - 0.05 in Rain Light Rain
6:55 AM 37.4 °F 32.8 °F 35.6 °F 93% 29.49 in 4.0 mi East 5.8 mph - 0.06 in Rain Light Rain
7:15 AM 37.4 °F 33.8 °F 35.6 °F 93% 29.50 in 5.0 mi East 4.6 mph - 0.02 in Rain Light Rain
7:35 AM 37.4 °F 32.8 °F 35.6 °F 93% 29.49 in 5.0 mi East 5.8 mph - 0.03 in Rain Rain
7:55 AM 37.4 °F 34.9 °F 35.6 °F 93% 29.49 in 4.0 mi East 3.5 mph - 0.03 in Rain Light Rain
8:15 AM 37.4 °F - 35.6 °F 93% 29.50 in 4.0 mi Calm Calm - 0.02 in Rain Light Rain
8:35 AM 37.4 °F 34.9 °F 35.6 °F 93% 29.50 in 3.0 mi NW 3.5 mph - 0.02 in Rain Rain
8:55 AM 37.4 °F - 35.6 °F 93% 29.50 in 5.0 mi Calm Calm - 0.03 in   Drizzle
9:15 AM 37.4 °F - 35.6 °F 93% 29.51 in 3.0 mi Calm Calm - N/A   Drizzle
9:35 AM 37.4 °F - 35.6 °F 93% 29.50 in 2.0 mi Calm Calm - N/A   Drizzle
9:55 AM 37.4 °F 34.9 °F 35.6 °F 93% 29.50 in 1.8 mi NNW 3.5 mph - N/A   Light Drizzle
10:15 AM 37.4 °F 34.9 °F 35.6 °F 93% 29.51 in 2.5 mi North 3.5 mph - N/A   Overcast
10:35 AM 37.4 °F - 35.6 °F 93% 29.51 in 3.0 mi Calm Calm - N/A Rain Rain
10:55 AM 39.2 °F 35.9 °F 37.4 °F 93% 29.51 in 2.0 mi North 4.6 mph - 0.02 in   Drizzle
11:15 AM 37.4 °F 34.9 °F 35.6 °F 93% 29.51 in 2.5 mi North 3.5 mph - N/A   Drizzle
11:35 AM 37.4 °F 33.8 °F 35.6 °F 93% 29.51 in 4.0 mi North 4.6 mph - N/A   Overcast
11:55 AM 37.4 °F 33.8 °F 35.6 °F 93% 29.51 in 4.0 mi North 4.6 mph - N/A   Overcast
12:15 PM 37.4 °F 32.1 °F 35.6 °F 93% 29.49 in 7.0 mi NNE 6.9 mph - N/A   Overcast
12:35 PM 37.4 °F 31.4 °F 35.6 °F 93% 29.49 in 7.0 mi NNE 8.1 mph - N/A   Overcast
12:55 PM 37.4 °F 32.8 °F 35.6 °F 93% 29.50 in 7.0 mi North 5.8 mph - N/A   Overcast
1:15 PM 37.4 °F 32.8 °F 35.6 °F 93% 29.50 in 5.0 mi North 5.8 mph - N/A   Drizzle
1:35 PM 37.4 °F 32.1 °F 33.8 °F 87% 29.50 in 5.0 mi North 6.9 mph - N/A   Drizzle
1:54 PM 37.4 °F 30.8 °F 33.8 °F 87% 29.50 in 7.0 mi NNW 9.2 mph - N/A   Light Drizzle
2:15 PM 35.6 °F 28.0 °F 33.8 °F 93% 29.51 in 3.0 mi NNW 10.4 mph - N/A   Light Drizzle
2:35 PM 35.6 °F 28.6 °F 33.8 °F 93% 29.51 in 3.0 mi NNW 9.2 mph - N/A   Light Drizzle
2:55 PM 35.6 °F 29.2 °F 32.0 °F 87% 29.52 in 2.0 mi NW 8.1 mph - N/A Rain Light Rain
3:15 PM 33.8 °F 28.6 °F 32.0 °F 93% 29.53 in 1.5 mi NW 5.8 mph - N/A Snow Light Snow
3:35 PM 33.8 °F 28.6 °F 32.0 °F 93% 29.54 in 1.0 mi NW 5.8 mph - N/A Snow Light Snow
3:55 PM 33.8 °F 28.6 °F 32.0 °F 93% 29.54 in 1.0 mi NNW 5.8 mph - N/A Snow Light Snow
4:15 PM 32.0 °F 26.4 °F 32.0 °F 100% 29.55 in 1.0 mi NNW 5.8 mph - N/A Snow Light Snow
4:35 PM 33.8 °F 27.0 °F 32.0 °F 93% 29.55 in 2.5 mi North 8.1 mph - N/A   Overcast
4:55 PM 32.0 °F 25.6 °F 32.0 °F 100% 29.56 in 4.0 mi North 6.9 mph - N/A   Overcast
5:15 PM 32.0 °F 25.6 °F 32.0 °F 100% 29.58 in 5.0 mi NNW 6.9 mph - N/A Rain Light Rain
5:35 PM 33.8 °F 26.4 °F 32.0 °F 93% 29.59 in 5.0 mi NNW 9.2 mph - N/A Snow Light Snow
5:55 PM 33.8 °F 27.0 °F 32.0 °F 93% 29.61 in 4.0 mi NW 8.1 mph - N/A Snow Light Snow
6:15 PM 33.8 °F 27.0 °F 32.0 °F 93% 29.62 in 3.0 mi NW 8.1 mph - N/A Snow Light Snow
6:35 PM 33.8 °F 27.0 °F 32.0 °F 93% 29.63 in 3.0 mi NW 8.1 mph - N/A Snow Light Snow
6:55 PM 33.8 °F 25.8 °F 32.0 °F 93% 29.64 in 3.0 mi NW 10.4 mph - N/A Snow Light Snow
7:15 PM 33.8 °F 25.8 °F 32.0 °F 93% 29.64 in 2.5 mi NW 10.4 mph - N/A Snow Light Snow
7:35 PM 33.8 °F 25.3 °F 32.0 °F 93% 29.64 in 2.0 mi NW 11.5 mph - N/A Snow Light Snow
7:55 PM 32.0 °F 22.5 °F 32.0 °F 100% 29.65 in 2.5 mi NW 12.7 mph 17.3 mph N/A Snow Light Snow
8:15 PM 32.0 °F 23.0 °F 32.0 °F 100% 29.65 in 2.0 mi NW 11.5 mph 17.3 mph N/A Snow Light Snow
8:35 PM 32.0 °F 22.5 °F 30.2 °F 93% 29.65 in 4.0 mi NW 12.7 mph - N/A   Overcast
8:55 PM 32.0 °F 22.1 °F 30.2 °F 93% 29.65 in 3.0 mi NW 13.8 mph - N/A   Overcast
9:15 PM 32.0 °F 22.1 °F 30.2 °F 93% 29.65 in 3.0 mi NW 13.8 mph 18.4 mph N/A   Overcast
9:35 PM 32.0 °F 20.5 °F 28.4 °F 87% 29.65 in 4.0 mi NNW 18.4 mph - N/A   Overcast
9:55 PM 30.2 °F 18.1 °F 28.4 °F 93% 29.65 in 4.0 mi NNW 18.4 mph 23.0 mph N/A   Overcast
10:15 PM 30.2 °F 18.5 °F 28.4 °F 93% 29.64 in 3.0 mi NNW 17.3 mph 23.0 mph N/A   Overcast
10:35 PM 28.4 °F 16.6 °F 26.6 °F 93% 29.65 in 4.0 mi NNW 16.1 mph - N/A   Overcast
10:55 PM 28.4 °F 17.0 °F 24.8 °F 86% 29.65 in 4.0 mi NNW 15.0 mph 24.2 mph N/A   Overcast
11:15 PM 26.6 °F 14.7 °F 23.0 °F 86% 29.66 in 4.0 mi NNW 15.0 mph 21.9 mph N/A   Overcast
11:35 PM 26.6 °F 16.8 °F 23.0 °F 86% 29.67 in 4.0 mi NW 10.4 mph - N/A   Overcast
11:55 PM 26.6 °F 17.5 °F 23.0 °F 86% 29.68 in 3.0 mi NNW 9.2 mph - N/A   Mostly Cloudy